ATD348 KDEN-KPHX

Flight info

Callsign ATD348
Flight time 1h 39m
Altitude 36000
Route PIKES3 ALS GUP BUNTR3
Aircraft A20N/M-SDE2E3FGHIRWXY/LB1

Departure

Time 2026-05-05 01:25
Airport Denver International Airport (KDEN)

Arrival

Time 2026-05-05 03:04
Airport Phoenix Sky Harbor International Airport (KPHX)
Time Latitude Longitude Altitude Speed Heading
2026-05-05 00:38 39.85815 -104.67144 5380 ft 0 kts
2026-05-05 01:04 39.85813 -104.67144 5358 ft 1 kts
2026-05-05 01:05 39.85805 -104.67144 5376 ft 1 kts
2026-05-05 01:05 39.85796 -104.67144 5377 ft 1 kts
2026-05-05 01:05 39.85786 -104.67144 5378 ft 1 kts
2026-05-05 01:05 39.85776 -104.67144 5377 ft 2 kts
2026-05-05 01:06 39.85766 -104.67145 5377 ft 1 kts
2026-05-05 01:06 39.85756 -104.67145 5377 ft 1 kts
2026-05-05 01:06 39.85750 -104.67145 5375 ft 0 kts
2026-05-05 01:10 39.85751 -104.67145 5379 ft 0 kts
2026-05-05 01:11 39.85755 -104.67145 5375 ft 0 kts
2026-05-05 01:13 39.85754 -104.67145 5375 ft 1 kts
2026-05-05 01:13 39.85747 -104.67145 5374 ft 1 kts 342°
2026-05-05 01:14 39.85732 -104.67130 5378 ft 3 kts 282°
2026-05-05 01:14 39.85731 -104.67127 5378 ft 1 kts 271°
2026-05-05 01:14 39.85731 -104.67146 5375 ft 6 kts 268°
2026-05-05 01:14 39.85725 -104.67226 5379 ft 10 kts 261°
2026-05-05 01:15 39.85703 -104.67317 5378 ft 10 kts 244°
2026-05-05 01:15 39.85672 -104.67394 5381 ft 10 kts 250°
2026-05-05 01:15 39.85666 -104.67487 5379 ft 11 kts 269°
2026-05-05 01:15 39.85666 -104.67592 5379 ft 12 kts 271°
2026-05-05 01:16 39.85667 -104.67699 5379 ft 12 kts 271°
2026-05-05 01:16 39.85668 -104.67807 5379 ft 12 kts 271°
2026-05-05 01:16 39.85669 -104.67917 5378 ft 12 kts 270°
2026-05-05 01:16 39.85670 -104.68031 5378 ft 13 kts 270°
2026-05-05 01:17 39.85667 -104.68146 5377 ft 13 kts 261°
2026-05-05 01:17 39.85623 -104.68197 5375 ft 5 kts 153°
2026-05-05 01:17 39.85590 -104.68195 5376 ft 6 kts 183°
2026-05-05 01:17 39.85554 -104.68210 5374 ft 5 kts 236°
2026-05-05 01:18 39.85557 -104.68249 5375 ft 5 kts 287°
2026-05-05 01:18 39.85570 -104.68298 5376 ft 7 kts 291°
2026-05-05 01:18 39.85566 -104.68367 5374 ft 9 kts 220°
2026-05-05 01:18 39.85510 -104.68393 5375 ft 9 kts 195°
2026-05-05 01:19 39.85452 -104.68402 5375 ft 8 kts 184°
2026-05-05 01:19 39.85397 -104.68402 5376 ft 7 kts 178°
2026-05-05 01:19 39.85347 -104.68401 5376 ft 7 kts 179°
2026-05-05 01:19 39.85304 -104.68411 5376 ft 6 kts 183°
2026-05-05 01:20 39.85266 -104.68412 5378 ft 5 kts 182°
2026-05-05 01:20 39.85229 -104.68416 5377 ft 5 kts 194°
2026-05-05 01:20 39.85207 -104.68464 5377 ft 8 kts 264°
2026-05-05 01:20 39.85205 -104.68560 5373 ft 13 kts 270°
2026-05-05 01:21 39.85203 -104.68694 5367 ft 17 kts 269°
2026-05-05 01:21 39.85201 -104.68863 5360 ft 20 kts 269°
2026-05-05 01:21 39.85197 -104.69064 5352 ft 24 kts 269°
2026-05-05 01:21 39.85199 -104.69293 5342 ft 27 kts 274°
2026-05-05 01:22 39.85201 -104.69510 5335 ft 16 kts 271°
2026-05-05 01:22 39.85201 -104.69525 5337 ft 0 kts 271°
2026-05-05 01:23 39.85205 -104.69587 5336 ft 12 kts 279°
2026-05-05 01:23 39.85262 -104.69658 5335 ft 12 kts 353°
2026-05-05 01:23 39.85343 -104.69659 5337 ft 16 kts
2026-05-05 01:24 39.85713 -104.69654 5340 ft 88 kts
2026-05-05 01:24 39.86521 -104.69645 5331 ft 144 kts
2026-05-05 01:24 39.87677 -104.69631 5441 ft 182 kts
2026-05-05 01:24 39.89037 -104.69496 5749 ft 210 kts
2026-05-05 01:25 39.90583 -104.69281 6193 ft 236 kts
2026-05-05 01:25 39.92297 -104.69111 6649 ft 258 kts
2026-05-05 01:25 39.94161 -104.69012 7108 ft 274 kts
2026-05-05 01:25 39.96109 -104.68996 7663 ft 284 kts 359°
2026-05-05 01:26 39.98108 -104.68950 8243 ft 290 kts
2026-05-05 01:26 40.00152 -104.68833 8646 ft 303 kts
2026-05-05 01:26 40.02272 -104.69082 9188 ft 309 kts 345°
2026-05-05 01:26 40.04162 -104.70413 9742 ft 319 kts 318°
2026-05-05 01:27 40.05426 -104.72952 9468 ft 352 kts 287°
2026-05-05 01:27 40.05631 -104.76198 9483 ft 371 kts 262°
2026-05-05 01:27 40.04786 -104.79390 9480 ft 387 kts 237°
2026-05-05 01:27 40.02728 -104.81661 9508 ft 398 kts 199°
2026-05-05 01:28 40.00030 -104.82562 9705 ft 404 kts 192°
2026-05-05 01:28 39.97239 -104.83344 9729 ft 415 kts 191°
2026-05-05 01:28 39.94401 -104.84109 10006 ft 416 kts 192°
2026-05-05 01:28 39.91567 -104.84910 10371 ft 416 kts 192°
2026-05-05 01:29 39.88801 -104.85700 10659 ft 404 kts 193°
2026-05-05 01:29 39.86096 -104.86472 10850 ft 397 kts 193°
2026-05-05 01:29 39.83370 -104.87327 11035 ft 403 kts 198°
2026-05-05 01:29 39.80811 -104.88779 11238 ft 401 kts 213°
2026-05-05 01:30 39.78651 -104.91068 11439 ft 400 kts 228°
2026-05-05 01:30 39.77000 -104.93967 11462 ft 398 kts 242°
2026-05-05 01:30 39.75963 -104.97269 11275 ft 395 kts 255°
2026-05-05 01:30 39.75260 -105.00678 11099 ft 396 kts 255°
2026-05-05 01:31 39.74396 -105.04075 10905 ft 396 kts 248°
2026-05-05 01:31 39.73316 -105.07368 10714 ft 396 kts 248°
2026-05-05 01:31 39.72234 -105.10662 10519 ft 396 kts 248°
2026-05-05 01:31 39.71155 -105.13953 10320 ft 396 kts 248°
2026-05-05 01:32 39.70073 -105.17254 10130 ft 397 kts 248°
2026-05-05 01:32 39.68990 -105.20558 9995 ft 397 kts 248°
2026-05-05 01:32 39.67900 -105.23874 9978 ft 398 kts 248°
2026-05-05 01:32 39.66826 -105.27140 9970 ft 398 kts 248°
2026-05-05 01:33 39.65737 -105.30445 9966 ft 398 kts 248°
2026-05-05 01:33 39.64645 -105.33756 9955 ft 398 kts 248°
2026-05-05 01:33 39.63551 -105.37066 10136 ft 398 kts 248°
2026-05-05 01:33 39.62463 -105.40361 10570 ft 396 kts 248°
2026-05-05 01:34 39.61378 -105.43645 11115 ft 394 kts 248°
2026-05-05 01:34 39.60314 -105.46868 11841 ft 393 kts 248°
2026-05-05 01:34 39.59236 -105.50127 12591 ft 393 kts 248°
2026-05-05 01:34 39.58144 -105.53408 13371 ft 397 kts 248°
2026-05-05 01:35 39.57042 -105.56712 14104 ft 401 kts 248°
2026-05-05 01:35 39.55964 -105.60074 14809 ft 404 kts 251°
2026-05-05 01:35 39.54993 -105.63449 15559 ft 407 kts 250°
2026-05-05 01:35 39.53971 -105.66894 16289 ft 411 kts 250°
2026-05-05 01:36 39.52969 -105.70391 17050 ft 415 kts 251°
2026-05-05 01:36 39.51985 -105.73923 17848 ft 418 kts 251°
2026-05-05 01:36 39.51002 -105.77465 18570 ft 420 kts 251°
2026-05-05 01:36 39.50007 -105.81038 19279 ft 421 kts 251°
2026-05-05 01:37 39.49002 -105.84619 20005 ft 423 kts 251°
2026-05-05 01:37 39.48514 -105.86347 20355 ft 423 kts 251°
2026-05-05 01:37 39.47680 -105.89274 21028 ft 404 kts 250°
2026-05-05 01:37 39.46715 -105.92664 21796 ft 400 kts 251°
2026-05-05 01:38 39.45751 -105.95997 22577 ft 399 kts 251°
2026-05-05 01:38 39.44772 -105.99364 23190 ft 402 kts 251°
2026-05-05 01:38 39.43781 -106.02772 23716 ft 405 kts 251°
2026-05-05 01:38 39.42781 -106.06207 24192 ft 408 kts 251°
2026-05-05 01:39 39.41773 -106.09662 24688 ft 410 kts 251°
2026-05-05 01:39 39.40774 -106.13077 25164 ft 411 kts 251°
2026-05-05 01:39 39.39796 -106.16566 25666 ft 411 kts 252°
2026-05-05 01:39 39.38829 -106.20043 26170 ft 410 kts 252°
2026-05-05 01:40 39.37864 -106.23510 26678 ft 409 kts 252°
2026-05-05 01:40 39.36899 -106.26961 27191 ft 407 kts 252°
2026-05-05 01:40 39.36262 -106.29234 27544 ft 405 kts 252°
2026-05-05 01:40 39.35302 -106.32649 28059 ft 403 kts 252°
2026-05-05 01:41 39.34347 -106.36036 28588 ft 400 kts 252°
2026-05-05 01:41 39.33089 -106.40476 29294 ft 394 kts 252°
2026-05-05 01:41 39.32450 -106.42726 29665 ft 391 kts 252°
2026-05-05 01:41 39.31514 -106.46006 30196 ft 387 kts 252°
2026-05-05 01:42 39.30593 -106.49207 30648 ft 383 kts 252°
2026-05-05 01:42 39.29655 -106.52414 31129 ft 379 kts 252°
2026-05-05 01:42 39.28714 -106.55578 31591 ft 375 kts 252°
2026-05-05 01:42 39.27776 -106.58691 32075 ft 370 kts 252°
2026-05-05 01:43 39.26835 -106.61766 32525 ft 365 kts 252°
2026-05-05 01:43 39.25794 -106.64746 33045 ft 362 kts 248°
2026-05-05 01:43 39.24560 -106.67566 33570 ft 358 kts 245°
2026-05-05 01:43 39.23214 -106.70219 33964 ft 359 kts 242°
2026-05-05 01:44 39.21591 -106.72728 34059 ft 371 kts 234°
2026-05-05 01:44 39.19512 -106.74851 34077 ft 393 kts 222°
2026-05-05 01:44 39.16957 -106.76366 34081 ft 416 kts 212°
2026-05-05 01:44 39.14290 -106.77783 34081 ft 410 kts 218°
2026-05-05 01:45 39.09118 -106.80906 34070 ft 415 kts 217°
2026-05-05 01:45 39.03868 -106.84086 34060 ft 417 kts 217°
2026-05-05 01:46 38.98612 -106.87278 34044 ft 418 kts 217°
2026-05-05 01:46 38.93342 -106.90517 34032 ft 420 kts 217°
2026-05-05 01:47 38.90733 -106.92097 34026 ft 408 kts 217°
2026-05-05 01:47 38.88192 -106.93553 34019 ft 402 kts 216°
2026-05-05 01:47 38.83021 -106.96529 34023 ft 409 kts 216°
2026-05-05 01:48 38.77812 -106.99573 34034 ft 413 kts 216°
2026-05-05 01:48 38.72684 -107.02583 34039 ft 398 kts 216°
2026-05-05 01:49 38.67650 -107.05513 34048 ft 397 kts 216°
2026-05-05 01:49 38.62625 -107.08471 34055 ft 396 kts 216°
2026-05-05 01:50 38.57631 -107.11434 34052 ft 396 kts 216°
2026-05-05 01:50 38.52670 -107.14421 34041 ft 394 kts 216°
2026-05-05 01:51 38.47713 -107.17436 34033 ft 395 kts 216°
2026-05-05 01:51 38.42755 -107.20488 34013 ft 395 kts 216°
2026-05-05 01:52 38.37768 -107.23472 34002 ft 395 kts 215°
2026-05-05 01:52 38.32809 -107.26425 33981 ft 396 kts 216°
2026-05-05 01:53 38.27808 -107.29406 33974 ft 398 kts 214°
2026-05-05 01:53 38.22757 -107.32315 33980 ft 398 kts 214°
2026-05-05 01:54 38.17707 -107.35254 33994 ft 399 kts 214°
2026-05-05 01:54 38.15470 -107.36565 33991 ft 398 kts 214°
2026-05-05 01:55 38.15456 -107.36574 33995 ft 398 kts 214°
2026-05-05 01:55 38.10532 -107.39457 34000 ft 383 kts 214°
2026-05-05 01:56 38.08990 -107.40358 34012 ft 383 kts 215°
2026-05-05 01:57 38.04259 -107.43086 34025 ft 372 kts 214°
2026-05-05 01:57 37.99474 -107.45819 34017 ft 382 kts 214°
2026-05-05 01:58 37.95448 -107.48141 34041 ft 391 kts 214°
2026-05-05 01:58 37.94439 -107.48725 34044 ft 390 kts 214°
2026-05-05 01:59 37.89585 -107.51541 34063 ft 378 kts 214°
2026-05-05 01:59 37.84855 -107.54245 34062 ft 367 kts 214°
2026-05-05 02:00 37.80252 -107.56828 34070 ft 357 kts 214°
2026-05-05 02:00 37.75794 -107.59313 34064 ft 346 kts 216°
2026-05-05 02:01 37.71499 -107.61888 34055 ft 342 kts 217°
2026-05-05 02:01 37.67162 -107.64495 34041 ft 354 kts 217°
2026-05-05 02:02 37.62636 -107.67150 34032 ft 366 kts 216°
2026-05-05 02:02 37.57946 -107.69919 34029 ft 377 kts 216°
2026-05-05 02:03 37.53124 -107.72817 34015 ft 388 kts 216°
2026-05-05 02:03 37.48170 -107.75723 34012 ft 400 kts 215°
2026-05-05 02:04 37.43016 -107.78707 34019 ft 409 kts 214°
2026-05-05 02:04 37.37796 -107.81623 34021 ft 415 kts 214°
2026-05-05 02:05 37.32491 -107.84595 34032 ft 418 kts 214°
2026-05-05 02:05 37.27179 -107.87577 34043 ft 419 kts 214°
2026-05-05 02:06 37.21891 -107.90548 34047 ft 419 kts 214°
2026-05-05 02:06 37.16676 -107.93452 34038 ft 398 kts 214°
2026-05-05 02:07 37.11585 -107.96273 34033 ft 400 kts 214°
2026-05-05 02:07 37.06582 -107.99188 34003 ft 399 kts 214°
2026-05-05 02:08 37.01531 -108.02136 33972 ft 399 kts 214°
2026-05-05 02:08 36.96446 -108.04981 33938 ft 400 kts 214°
2026-05-05 02:09 36.91360 -108.07802 33962 ft 400 kts 214°
2026-05-05 02:09 36.86351 -108.10584 33983 ft 400 kts 214°
2026-05-05 02:10 36.81193 -108.13455 33997 ft 399 kts 214°
2026-05-05 02:10 36.76144 -108.16273 34004 ft 399 kts 214°
2026-05-05 02:11 36.71068 -108.19108 34002 ft 399 kts 214°
2026-05-05 02:11 36.66039 -108.21920 34005 ft 399 kts 214°
2026-05-05 02:12 36.58429 -108.26157 33968 ft 399 kts 214°
2026-05-05 02:13 36.53345 -108.28973 33939 ft 400 kts 214°
2026-05-05 02:13 36.48255 -108.31781 33909 ft 400 kts 214°
2026-05-05 02:14 36.43198 -108.34557 33877 ft 400 kts 214°
2026-05-05 02:14 36.38098 -108.37344 33850 ft 400 kts 214°
2026-05-05 02:15 36.32993 -108.40131 33850 ft 400 kts 214°
2026-05-05 02:15 36.27900 -108.42909 33843 ft 400 kts 214°
2026-05-05 02:16 36.22811 -108.45686 33842 ft 400 kts 214°
2026-05-05 02:16 36.17714 -108.48471 33838 ft 400 kts 214°
2026-05-05 02:17 36.12687 -108.51223 33837 ft 400 kts 214°
2026-05-05 02:17 36.07647 -108.54115 33834 ft 398 kts 215°
2026-05-05 02:18 36.02632 -108.57040 33830 ft 398 kts 215°
2026-05-05 02:18 35.97618 -108.59898 33832 ft 400 kts 214°
2026-05-05 02:19 35.92541 -108.62729 33828 ft 400 kts 214°
2026-05-05 02:19 35.87435 -108.65514 33830 ft 402 kts 213°
2026-05-05 02:20 35.82293 -108.68256 33868 ft 401 kts 213°
2026-05-05 02:20 35.77166 -108.71003 33921 ft 401 kts 213°
2026-05-05 02:21 35.72056 -108.73757 33982 ft 401 kts 213°
2026-05-05 02:21 35.66984 -108.76502 34040 ft 401 kts 213°
2026-05-05 02:22 35.61886 -108.79308 34096 ft 400 kts 213°
2026-05-05 02:22 35.56819 -108.82131 34114 ft 399 kts 214°
2026-05-05 02:23 35.51846 -108.85123 34110 ft 395 kts 217°
2026-05-05 02:23 35.47181 -108.88561 34121 ft 391 kts 221°
2026-05-05 02:24 35.43144 -108.92875 34064 ft 381 kts 232°
2026-05-05 02:24 35.39541 -108.97658 34007 ft 381 kts 232°
2026-05-05 02:25 35.35881 -109.02378 33961 ft 382 kts 231°
2026-05-05 02:25 35.32225 -109.07088 33930 ft 382 kts 231°
2026-05-05 02:26 35.28588 -109.11781 33889 ft 382 kts 231°
2026-05-05 02:26 35.25549 -109.15716 33888 ft 381 kts 231°
2026-05-05 02:27 35.21316 -109.21216 33888 ft 381 kts 231°
2026-05-05 02:27 35.18290 -109.25150 33899 ft 381 kts 231°
2026-05-05 02:28 35.14663 -109.29872 33899 ft 380 kts 231°
2026-05-05 02:28 35.11044 -109.34589 33896 ft 380 kts 231°
2026-05-05 02:29 35.07402 -109.39279 33900 ft 380 kts 230°
2026-05-05 02:29 35.03710 -109.43909 33908 ft 380 kts 230°
2026-05-05 02:30 35.00046 -109.48512 33907 ft 380 kts 230°
2026-05-05 02:30 34.96363 -109.53137 33905 ft 379 kts 230°
2026-05-05 02:31 34.92704 -109.57741 33914 ft 378 kts 230°
2026-05-05 02:31 34.89056 -109.62346 33914 ft 378 kts 230°
2026-05-05 02:32 34.85396 -109.66975 33918 ft 378 kts 230°
2026-05-05 02:32 34.81764 -109.71578 33914 ft 378 kts 230°
2026-05-05 02:33 34.78120 -109.76206 33922 ft 378 kts 230°
2026-05-05 02:33 34.74750 -109.81071 33924 ft 375 kts 239°
2026-05-05 02:34 34.72127 -109.86568 33945 ft 374 kts 241°
2026-05-05 02:34 34.69567 -109.92032 33990 ft 374 kts 241°
2026-05-05 02:35 34.66992 -109.97547 33923 ft 375 kts 241°
2026-05-05 02:35 34.65765 -110.00344 33765 ft 374 kts 244°
2026-05-05 02:35 34.64672 -110.03197 33590 ft 373 kts 245°
2026-05-05 02:35 34.63608 -110.06035 33423 ft 373 kts 244°
2026-05-05 02:36 34.62482 -110.08914 33248 ft 372 kts 244°
2026-05-05 02:36 34.61381 -110.11715 33101 ft 372 kts 244°
2026-05-05 02:36 34.60269 -110.14549 33099 ft 372 kts 244°
2026-05-05 02:37 34.58047 -110.20244 33106 ft 373 kts 245°
2026-05-05 02:37 34.55874 -110.25955 33099 ft 373 kts 244°
2026-05-05 02:38 34.53657 -110.31651 33084 ft 373 kts 244°
2026-05-05 02:38 34.51461 -110.37308 33065 ft 373 kts 244°
2026-05-05 02:39 34.49308 -110.43045 33043 ft 373 kts 245°
2026-05-05 02:39 34.47136 -110.48785 32930 ft 374 kts 244°
2026-05-05 02:39 34.46030 -110.51647 32672 ft 374 kts 244°
2026-05-05 02:40 34.44943 -110.54461 32401 ft 372 kts 244°
2026-05-05 02:40 34.43844 -110.57309 32151 ft 373 kts 244°
2026-05-05 02:40 34.42744 -110.60158 31902 ft 373 kts 244°
2026-05-05 02:40 34.41646 -110.63002 31657 ft 372 kts 244°
2026-05-05 02:41 34.40545 -110.65854 31413 ft 373 kts 244°
2026-05-05 02:41 34.39461 -110.68664 31159 ft 373 kts 244°
2026-05-05 02:41 34.38361 -110.71512 30935 ft 373 kts 244°
2026-05-05 02:41 34.37266 -110.74352 30702 ft 372 kts 244°
2026-05-05 02:42 34.36143 -110.77186 30459 ft 372 kts 240°
2026-05-05 02:42 34.34646 -110.79753 30240 ft 373 kts 234°
2026-05-05 02:42 34.33068 -110.82205 30006 ft 373 kts 232°
2026-05-05 02:42 34.31385 -110.84602 29742 ft 373 kts 230°
2026-05-05 02:43 34.29616 -110.86895 29471 ft 371 kts 229°
2026-05-05 02:43 34.27861 -110.89188 29119 ft 370 kts 229°
2026-05-05 02:43 34.26117 -110.91476 28725 ft 368 kts 229°
2026-05-05 02:43 34.24391 -110.93744 28326 ft 365 kts 229°
2026-05-05 02:44 34.22673 -110.96006 27823 ft 363 kts 229°
2026-05-05 02:44 34.20991 -110.98229 27191 ft 363 kts 229°
2026-05-05 02:44 34.19278 -111.00473 26539 ft 363 kts 229°
2026-05-05 02:44 34.17552 -111.02685 25897 ft 363 kts 228°
2026-05-05 02:45 34.15819 -111.04910 25347 ft 361 kts 229°
2026-05-05 02:45 34.14126 -111.07080 25138 ft 349 kts 229°
2026-05-05 02:45 34.12495 -111.09172 25078 ft 338 kts 229°
2026-05-05 02:45 34.10862 -111.11276 25017 ft 346 kts 228°
2026-05-05 02:46 34.09207 -111.13417 24703 ft 349 kts 228°
2026-05-05 02:46 34.07523 -111.15521 24250 ft 347 kts 227°
2026-05-05 02:46 34.05870 -111.17578 23810 ft 343 kts 227°
2026-05-05 02:46 34.04241 -111.19677 23320 ft 340 kts 228°
2026-05-05 02:47 34.02632 -111.21771 22649 ft 340 kts 229°
2026-05-05 02:47 34.01010 -111.23862 21875 ft 343 kts 229°
2026-05-05 02:47 33.99361 -111.25973 21115 ft 347 kts 229°
2026-05-05 02:47 33.97690 -111.28099 20374 ft 350 kts 229°
2026-05-05 02:48 33.95996 -111.30231 19646 ft 353 kts 229°
2026-05-05 02:48 33.94300 -111.32347 18948 ft 356 kts 229°
2026-05-05 02:48 33.92567 -111.34487 18350 ft 356 kts 229°
2026-05-05 02:48 33.90856 -111.36586 18075 ft 344 kts 229°
2026-05-05 02:49 33.89285 -111.38672 18002 ft 325 kts 231°
2026-05-05 02:49 33.87829 -111.40649 17954 ft 308 kts 231°
2026-05-05 02:49 33.86387 -111.42531 17641 ft 303 kts 230°
2026-05-05 02:49 33.84982 -111.44371 17148 ft 302 kts 230°
2026-05-05 02:50 33.83552 -111.46265 16362 ft 308 kts 230°
2026-05-05 02:50 33.81978 -111.48028 15566 ft 313 kts 215°
2026-05-05 02:50 33.79923 -111.48982 14793 ft 322 kts 194°
2026-05-05 02:50 33.77722 -111.49374 14055 ft 323 kts 192°
2026-05-05 02:51 33.75605 -111.49732 13987 ft 287 kts 193°
2026-05-05 02:51 33.73730 -111.50065 13729 ft 258 kts 193°
2026-05-05 02:51 33.72037 -111.50351 13487 ft 233 kts 193°
2026-05-05 02:51 33.70477 -111.50606 13068 ft 222 kts 194°
2026-05-05 02:52 33.68951 -111.50918 12579 ft 221 kts 195°
2026-05-05 02:52 33.67448 -111.51248 12167 ft 219 kts 195°
2026-05-05 02:52 33.65946 -111.51581 11720 ft 219 kts 195°
2026-05-05 02:52 33.64472 -111.51913 11310 ft 218 kts 195°
2026-05-05 02:53 33.62988 -111.52252 10908 ft 217 kts 195°
2026-05-05 02:53 33.61505 -111.52565 10502 ft 216 kts 194°
2026-05-05 02:53 33.60052 -111.52878 10139 ft 214 kts 196°
2026-05-05 02:53 33.58598 -111.53341 9751 ft 210 kts 201°
2026-05-05 02:54 33.57218 -111.53905 9202 ft 209 kts 201°
2026-05-05 02:54 33.55870 -111.54456 8873 ft 197 kts 201°
2026-05-05 02:54 33.54631 -111.54967 8573 ft 187 kts 201°
2026-05-05 02:54 33.53406 -111.55479 8159 ft 186 kts 201°
2026-05-05 02:55 33.52183 -111.56004 7705 ft 187 kts 201°
2026-05-05 02:55 33.50955 -111.56525 7274 ft 187 kts 200°
2026-05-05 02:55 33.49729 -111.57046 6828 ft 187 kts 200°
2026-05-05 02:55 33.48528 -111.57564 6469 ft 184 kts 200°
2026-05-05 02:56 33.47327 -111.58100 6129 ft 181 kts 200°
2026-05-05 02:56 33.46133 -111.58640 6022 ft 186 kts 200°
2026-05-05 02:56 33.44947 -111.59239 5949 ft 184 kts 213°
2026-05-05 02:56 33.43938 -111.60180 5647 ft 184 kts 220°
2026-05-05 02:57 33.43197 -111.61435 5212 ft 188 kts 249°
2026-05-05 02:57 33.42936 -111.62973 5054 ft 190 kts 263°
2026-05-05 02:57 33.42885 -111.64544 5018 ft 192 kts 268°
2026-05-05 02:57 33.42889 -111.66147 5021 ft 192 kts 268°
2026-05-05 02:58 33.42890 -111.67747 5016 ft 192 kts 268°
2026-05-05 02:58 33.42889 -111.69341 4946 ft 190 kts 268°
2026-05-05 02:58 33.42888 -111.70895 4819 ft 185 kts 268°
2026-05-05 02:58 33.42888 -111.72445 4742 ft 186 kts 268°
2026-05-05 02:59 33.42888 -111.73997 4659 ft 186 kts 268°
2026-05-05 02:59 33.42888 -111.75545 4546 ft 186 kts 268°
2026-05-05 02:59 33.42887 -111.77097 4294 ft 185 kts 268°
2026-05-05 02:59 33.42888 -111.78630 4044 ft 183 kts 268°
2026-05-05 03:00 33.42887 -111.80158 3640 ft 186 kts 268°
2026-05-05 03:00 33.42885 -111.81714 3139 ft 191 kts 269°
2026-05-05 03:00 33.42886 -111.83321 2632 ft 194 kts 269°
2026-05-05 03:00 33.42886 -111.84921 2261 ft 190 kts 269°
2026-05-05 03:01 33.42887 -111.86485 1975 ft 181 kts 269°
2026-05-05 03:01 33.42887 -111.87911 2007 ft 176 kts 270°
2026-05-05 03:01 33.42887 -111.89378 1993 ft 169 kts 269°
2026-05-05 03:01 33.42888 -111.90726 1892 ft 158 kts 269°
2026-05-05 03:02 33.42886 -111.92045 1536 ft 157 kts 270°
2026-05-05 03:02 33.42895 -111.93315 1493 ft 143 kts 271°
2026-05-05 03:02 33.42913 -111.94562 1786 ft 157 kts 270°
2026-05-05 03:02 33.42903 -111.95926 1715 ft 168 kts 269°
2026-05-05 03:03 33.42887 -111.97252 1635 ft 151 kts 270°
2026-05-05 03:03 33.42887 -111.98455 1442 ft 140 kts 271°
2026-05-05 03:03 33.42887 -111.99592 1257 ft 133 kts 269°
2026-05-05 03:03 33.42886 -112.00663 1136 ft 123 kts 270°
2026-05-05 03:04 33.42886 -112.01561 1132 ft 77 kts 270°
2026-05-05 03:04 33.42884 -112.01845 1128 ft 0 kts 269°
2026-05-05 03:04 33.42883 -112.01940 1127 ft 17 kts 268°
2026-05-05 03:04 33.42866 -112.02092 1122 ft 19 kts 251°
2026-05-05 03:05 33.42793 -112.02217 1120 ft 18 kts 238°
2026-05-05 03:05 33.42775 -112.02340 1128 ft 0 kts 268°
2026-05-05 03:06 33.42775 -112.02346 1128 ft 2 kts 268°
2026-05-05 03:06 33.42774 -112.02373 1128 ft 5 kts 268°
2026-05-05 03:06 33.42776 -112.02419 1128 ft 7 kts 273°
2026-05-05 03:06 33.42777 -112.02481 1128 ft 8 kts 270°
2026-05-05 03:07 33.42778 -112.02553 1128 ft 9 kts 277°
2026-05-05 03:07 33.42827 -112.02600 1119 ft 12 kts 353°
2026-05-05 03:07 33.42885 -112.02534 1124 ft 14 kts 84°
2026-05-05 03:07 33.42926 -112.02494 1118 ft 6 kts 355°
2026-05-05 03:08 33.42967 -112.02501 1122 ft 8 kts 346°
2026-05-05 03:08 33.43143 -112.02549 1122 ft 31 kts 356°
2026-05-05 03:08 33.43315 -112.02454 1130 ft 29 kts 71°
2026-05-05 03:08 33.43289 -112.02215 1135 ft 29 kts 93°
2026-05-05 03:09 33.43288 -112.01968 1134 ft 30 kts 90°
2026-05-05 03:09 33.43288 -112.01726 1130 ft 26 kts 90°
2026-05-05 03:09 33.43290 -112.01508 1131 ft 27 kts 90°
2026-05-05 03:09 33.43291 -112.01282 1130 ft 28 kts 91°
2026-05-05 03:10 33.43290 -112.01055 1134 ft 17 kts 90°
2026-05-05 03:10 33.43301 -112.00944 1130 ft 7 kts 40°
2026-05-05 03:10 33.43353 -112.00939 1133 ft 8 kts 359°
2026-05-05 03:10 33.43379 -112.00940 1130 ft 0 kts 359°
2026-05-05 03:11 33.43367 -112.00939 1133 ft 5 kts 359°
2026-05-05 03:11 33.43332 -112.00959 1134 ft 5 kts 71°
2026-05-05 03:11 33.43335 -112.00911 1135 ft 13 kts 89°
2026-05-05 03:11 33.43330 -112.00785 1135 ft 17 kts 107°
2026-05-05 03:12 33.43291 -112.00645 1134 ft 18 kts 97°
2026-05-05 03:12 33.43287 -112.00487 1131 ft 20 kts 93°
2026-05-05 03:12 33.43284 -112.00316 1134 ft 21 kts 90°
2026-05-05 03:12 33.43284 -112.00133 1133 ft 23 kts 90°
2026-05-05 03:13 33.43284 -111.99938 1134 ft 24 kts 89°
2026-05-05 03:13 33.43289 -111.99821 1135 ft 17 kts 71°
2026-05-05 03:13 33.43336 -111.99773 1133 ft 11 kts
2026-05-05 03:13 33.43383 -111.99825 1132 ft 9 kts 278°
2026-05-05 03:14 33.43349 -111.99867 1131 ft 5 kts 160°
2026-05-05 03:14 33.43322 -111.99873 1133 ft 3 kts 231°
2026-05-05 03:14 33.43323 -111.99892 1134 ft 4 kts 271°
2026-05-05 03:14 33.43333 -111.99896 1135 ft 2 kts 353°
2026-05-05 03:15 33.43346 -111.99897 1135 ft 0 kts 357°